OBJECT G, 61900

Orbit data source: Space-Track

You're viewing an Uncataloged Satellite

Recently launched and/or uncataloged satellites may have evolving metadata. Metadata may include but not limited to: Owner, Maufacturer, Bus, Motor, and Mission.

OBJECT G, 61900 is a satellite owned by Yunyao yuhang (CN) in SSO that was launched on Mon, 11 Nov 2024 UTC via a LIJIAN-1 launch vehicle from the Jiuquan Satellite Launch Center, China (JSC). Unknown objects in Earth's orbit typically refer to objects detected orbiting the Earth but have not yet been identified or cataloged. These objects could be anything from previously untracked satellites, spent rocket stages, debris from satellite collisions, or even natural meteoroids temporarily captured by Earth's gravity.

Loading next visibility...
Identifier
61900, 2024-205G
Orbit
SSO
Country
Flag of CNCN / PRC
Related business
None
Manufacturer
Changguang WJ
Mission
Operational Commercial Weather
Bus & Motor
YY-1, Unknown motor
Mass
~50 kg wet, ~50 kg dry
Launch date (UTC)
2024-11-11 (10 months ago)
Launch vehicle
LIJIAN-1
Launch site
Jiuquan Satellite Launch Center, China (JSC)
Object type
Unknown
Shape & HBR
Box + 1 Pan, 2.5 m
Radar Cross Section
5.339 m², Medium (>0.1 m² and < 1m²)

Expand to show TLE details & history
Last TLE update: 15 hours ago

TLE from 15 hours ago
0 OBJECT G
1 61900U 24205G   25258.52519142  .00012528  00000-0  65155-3 0  9993
2 61900  97.4450 330.4359 0025017 270.5428  89.2938 15.15919453 46627
Epoch: 2025-09-15T12:36Z
TLE epoch observation values (Epoch: 2025-09-15T12:36:16.538Z)
Latitude
-0.00006°
Longitude
146.6384°
Altitude
521.103 km
Speed
7.603 km/s
True Right ascension
22h 01m 44s
True Declination
0° 00' 00"
Sunlit
Object was in full shadow at epoch
Visualization orbit readout
Latitude
Unknown
Longitude
Unknown
Altitude
Unknown
Speed
Unknown
Apparent Right ascension
Unknown
Apparent Declination
Unknown
Sunlit
N/A
Visualization observer readout
Local Sidereal Time
20:43:29
Azimuth
Unknown
Elevation
Unknown
Doppler factor
Unknown
Orbital elements
Apogee altitude
532.406 km
Perigee altitude
497.917 km
Semi-major axis
6,893.299 km
Eccentricity
0.0025
Inclination
97.445°
RAAN
330.4359°
Arg. of periapsis
270.5428°
True anomaly
89.58046°
Mean anomaly
89.2938°
Eccentric anomaly
89.43713°
Mean motion
3.7923 °/min
Orbital period
94.93 mins
BSTAR
0.00065155
Loading maneuver chart data...
Computing Atmospheric mass density...
Loading historical data...
Loading historical data...
Loading historical data...
Loading historical data...
Loading historical data...
Loading historical data...
Loading historical data...

Documentation

Showing up to 5 results
|